Regional Weather Roundup
Issued by NWS Charleston, SC

Current Version | Previous Version | Text Only | Print | Product List | Glossary Off
Versions: 1 2 3 4 5 6 7 8 9 10 11 12 13 14 15 16 17 18 19 20 21 22 23 24 25 26 27 28 29 30 31 32 33 34 35 36 37 38 39 40 41 42 43 44 45 46 47 48 49 50
000 ASUS42 KCHS 282110 RWRCHS REGIONAL WEATHER ROUNDUP NATIONAL WEATHER SERVICE CHARLESTON SC 500 PM EDT MON JUL 28 2014 NOTE: "FAIR" INDICATES FEW OR NO CLOUDS BELOW 12,000 FEET WITH NO SIGNIFICANT WEATHER AND/OR OBSTRUCTIONS TO VISIBILITY. NOT ALL STATIONS ARE QUALITY CONTROLLED BY THE NATIONAL WEATHER SERVICE. USE DATA WITH CAUTION...ESPECIALLY DEWPOINT OBSERVATIONS. SCZ027-030-031-034>040-042>050-282200- ...SOUTH CAROLINA... CITY SKY/WX TMP DP RH WIND PRES REMARKS N CHARLESTON MOSUNNY 94 78 60 SW12 29.79F HX 110 WATERFRONT PRK N/A 91 N/A N/A SW7 N/A FORT JOHNSON NOT AVBL MOUNT PLEASANT FAIR 88 79 74 SW8 29.79F HX 102 JOHNS ISLAND PTCLDY 93 73 52 SW8 29.81F HX 102 PINOPOLIS N/A 93 75 55 SW16 29.70F HX 104 MONCKS CORNER N/A 95 79 59 SW12G18 29.79F HX 112 SUMMERVILLE FAIR 95 75 52 SW12G20 29.80F HX 107 BEAUFORT MCAS PTSUNNY 88 77 69 NW9 29.82F HX 100 BEAUFORT ARPT TSTM 84 81 89 W9 29.82F HX 98 HILTON HEAD IS MOSUNNY 97 75 49 SW13G20 29.84S HX 109 GEORGETOWN NOT AVBL WALTERBORO TSTM 88 73 62 NW6 29.82S HX 96 ORANGEBURG SUNNY 94 71 47 W13G24 29.79F HX 101 BARNWELL FAIR 95 72 46 W13G22 29.81F HX 103 AIKEN FAIR 95 68 41 W14G24 29.84F HX 99 MANNING FAIR 95 75 52 SW13G18 29.77F HX 107 KINGSTREE NOT AVBL COLUMBIA MOSUNNY 99 57 24 NW16G25 29.77F HX 98 SUMTER SUNNY 95 69 43 W16 29.75F HX 100 FLORENCE MOSUNNY 96 67 38 W15G24 29.74F HX 100 MYRTLE BEACH PTSUNNY 95 75 52 W12 29.77F HX 107 N MYRTLE BEACH PTSUNNY 90 74 59 W6 29.75F HX 99 $$ GAZ063-065-086>088-099>101-113>116-118-119-134-136>141-150-282200- ...GEORGIA... CITY SKY/WX TMP DP RH WIND PRES REMARKS SAVANNAH ARPT PTSUNNY 95 72 47 W12 29.84S HX 103 HUNTER AAF MOSUNNY 95 73 47 W13G21 29.82F HX 104 FORT STEWART PTSUNNY 98 70 40 W9G22 29.83S HX 104 STATESBORO NOT AVBL SYLVANIA MOCLDY 91 80 70 W3 29.84S HX 108 CLAXTON FAIR 95 77 55 W9G16 29.84S HX 109 THOMSON MOSUNNY 95 73 48 W12 29.87F HX 104 AUGUSTA-BUSH PTSUNNY 95 70 44 NW16 29.80F HX 101 AUGUSTA-DANIEL MOSUNNY 96 66 37 NW14G20 29.83F HX 99 SWAINSBORO MOCLDY 93 79 62 SW8 29.85F HX 110 VIDALIA N/A 93 75 55 W9 29.85S HX 104 ALMA NOT AVBL WAYCROSS MOSUNNY 101 73 40 W16G22 29.86F HX 112 JESUP NOT AVBL BRUNSWICK MOSUNNY 97 68 38 W10G18 29.86F HX 101 SAINT SIMONS MOSUNNY 96 72 45 W15G24 29.86F HX 104 $$ SCZ027-028-034-036>038-045-046-048>050-GAZ119-141-282200- ...LAKE AND SUPPLEMENTAL COASTAL OBSERVATIONS... STATION/POSITION TIME TEMP WIND PRES WAVE SWELL AIR SEA DIR/SP/G HT/PER HT/PER/DIR (UTC) (F) (DEG/KT/KT) (MB) (FT/S) (FT/S/D) UPR LAKE MARION NOT AVBL WINYAH BAY 2000 93 250/ 9 1008.0F LAKE MURRAY 2000 93 280/ 9/ 16 1008.1S ACE BASIN NERRS 2000 90 260/ 3 1010.0F FORT PULASKI 2100 94 280/ 16/ 19 1010.3F SAPELO ISLAND 2000 96 240/ 16 1012.0S $$ ANZ835-935-AMZ111-154-330-350-352-354-374-450-454-472-282200- ...C-MAN AND BUOY OBSERVATIONS... STATION/POSITION TIME TEMP WIND PRES WAVE SWELL AIR SEA DIR/SP/G HT/PER HT/PER/DIR (UTC) (F) (DEG/KT/KT) (MB) (FT/S) (FT/S/D) FOLLY BEACH CMAN 2000 89 210/ 15/ 18 1010.0F BUOY 41004 2100 84 84 220/ 19/ 23 1008.9F 5/ 6 2/ 9 BUOY 41008 2100 87 86 210/ 12/ 14 1010.9F 2/ 9 2/110/ 9 5E ST. MARYS GA 2100 86 N/A 2/ 9 FRYING PAN BUOY NOT AVBL BUOY 41025 2100 VRB 16/ 17 1008.0S 5/ 6 3/130/ 9 CAPE LOOKOUT NC 2000 84 240/ 11/ 16 1008.4S BUOY 41002 2011 82 81 230/ 16/ 19 1013.3F 6/ 7 3/190/ 9 BUOY 41010 2100 84 85 230/ 14/ 16 1015.4F 4/ 6 2/120/ 8 BUOY 41012 NOT AVBL ST AUGUSTINE FL 2100 86 240/ 7/ 9 1014.3S CAPERS NEARSHORE 2000 87 230/ 17/ 19 N/A FRIPP NEARSHORE NOT AVBL $$

USA.gov is the U.S. government's official web portal to all federal, state and local government web resources and services.